Jackson, MS

8:03 AM CST on November 24, 2017 (GMT -0600)
Jackson-Evers International

Weather History for KJAN - October, 2012

Change the Weather History Date:

Wednesday, October 3, 2012

  Actual Average Record
Temperature  
Mean Temperature 68 °F 70 °F  
Max Temperature 81 °F 81 °F 97 °F (1911)
Min Temperature 55 °F 58 °F 39 °F (1984)
Degree Days  
Heating Degree Days 0 1  
Month to date heating degree days 2 3  
Since 1 July heating degree days 3 10  
Cooling Degree Days 3 6  
Month to date cooling degree days 3 18  
Year to date cooling degree days 2440 2144  
Growing Degree Days 18 (Base 50)    
Moisture  
Dew Point 58 °F    
Average Humidity 71    
Maximum Humidity 100    
Minimum Humidity 42    
Precipitation  
Precipitation 0.00 in 0.12 in 3.00 in (1995)
Month to date precipitation 0.14 0.36  
Year to date precipitation 56.97 40.67  
Sea Level Pressure  
Sea Level Pressure 30.06 in    
Wind  
Wind Speed 4 mph (SSE)    
Max Wind Speed 15 mph    
Max Gust Speed 17 mph    
Visibility 9 miles    
Events      
T = Trace of Precipitation, MM = Missing Value Source: NWS Daily Summary

Daily Weather History Graph

Daily Weather History Graph

Search for Another Location

Airport or City:

Trip Planner

Search our weather history database for the weather conditions in past years. The results will help you decide how hot, cold, wet, or windy it might be!

Date:

Astronomy

Oct. 03, 2012 Rise Set
Actual Time 6:55 AM CDT 6:41 PM CDT
Civil Twilight 6:31 AM CDT 7:06 PM CDT
Nautical Twilight 6:03 AM CDT 7:34 PM CDT
Astronomical Twilight 5:34 AM CDT 8:03 PM CDT
Moon 8:48 PM CDT (10/3) 10:05 AM CDT (10/3)
Length of Visible Light 12h 34m
Length of Day
11h 45m
Waning Gibbous, 88% of the Moon is Illuminated
Oct 3
Waning Gibbous
Oct 8
Last Quarter
Oct 15
New
Oct 21
First Quarter
Oct 29
Full

Hourly Weather History & Observations

Time (CDT) Temp. Heat Index Dew Point Humidity Pressure Visibility Wind Dir Wind Speed Gust Speed Precip Events Conditions
12:54 AM 57.9 °F - 55.9 °F 93% 29.99 in 10.0 mi SE 3.5 mph - N/A   Clear
1:54 AM 57.0 °F - 55.0 °F 93% 30.00 in 6.0 mi Calm Calm - N/A   Clear
2:54 AM 55.9 °F - 55.0 °F 97% 30.00 in 6.0 mi Calm Calm - N/A   Clear
3:54 AM 57.0 °F - 55.0 °F 93% 29.99 in 7.0 mi Calm Calm - N/A   Scattered Clouds
4:54 AM 57.0 °F - 55.9 °F 96% 30.01 in 7.0 mi Calm Calm - N/A   Scattered Clouds
5:54 AM 55.0 °F - 54.0 °F 96% 30.03 in 6.0 mi Calm Calm - N/A   Clear
6:54 AM 55.9 °F - 54.0 °F 93% 30.05 in 6.0 mi Calm Calm - N/A   Scattered Clouds
7:54 AM 60.1 °F - 57.0 °F 90% 30.05 in 6.0 mi SE 4.6 mph - N/A   Partly Cloudy
8:54 AM 64.9 °F - 59.0 °F 81% 30.07 in 10.0 mi SSE 4.6 mph - N/A   Clear
9:54 AM 69.1 °F - 59.0 °F 70% 30.09 in 10.0 mi South 4.6 mph - N/A   Partly Cloudy
10:54 AM 73.0 °F - 60.1 °F 64% 30.10 in 10.0 mi SSE 6.9 mph - N/A   Clear
11:54 AM 75.9 °F - 60.1 °F 58% 30.09 in 10.0 mi South 8.1 mph - N/A   Partly Cloudy
12:54 PM 78.1 °F - 57.9 °F 50% 30.07 in 10.0 mi SSW 9.2 mph - N/A   Scattered Clouds
1:54 PM 78.1 °F - 57.9 °F 50% 30.06 in 10.0 mi SSW 9.2 mph - N/A   Mostly Cloudy
2:54 PM 80.1 °F 80.2 °F 55.9 °F 43% 30.04 in 10.0 mi Variable 4.6 mph - N/A   Mostly Cloudy
3:54 PM 78.1 °F - 57.0 °F 48% 30.04 in 10.0 mi South 9.2 mph - N/A   Mostly Cloudy
4:54 PM 77.0 °F - 57.9 °F 52% 30.04 in 10.0 mi SSE 5.8 mph - N/A   Mostly Cloudy
5:54 PM 75.0 °F - 60.1 °F 60% 30.06 in 10.0 mi SSE 5.8 mph - N/A   Mostly Cloudy
6:54 PM 69.1 °F - 62.1 °F 78% 30.07 in 10.0 mi SE 4.6 mph - 0.00 in   Scattered Clouds
7:54 PM 64.9 °F - 61.0 °F 87% 30.08 in 10.0 mi Calm Calm - N/A   Partly Cloudy
8:54 PM 64.9 °F - 62.1 °F 90% 30.10 in 10.0 mi SSE 8.1 mph - N/A   Partly Cloudy
9:54 PM 64.9 °F - 61.0 °F 87% 30.12 in 10.0 mi SSE 4.6 mph - N/A   Partly Cloudy
10:54 PM 64.4 °F - 60.8 °F 88% 30.13 in 10.0 mi Calm Calm - N/A   Clear
11:54 PM 63.0 °F - 61.0 °F 93% 30.13 in 8.0 mi Calm Calm - N/A   Clear